AO-07 1 07530U 74089B 26163.26418550 -.00000029 00000-0 11075-3 0 9991 2 07530 101.9901 176.4594 0012519 139.2870 231.9396 12.53697997359909 UO-11 1 14781U 84021B 26163.85854639 .00001300 00000-0 13794-3 0 9993 2 14781 97.8056 129.4816 0007224 187.2245 172.8870 14.90773494256489 LO-19 1 20442U 90005G 26163.78653215 .00000118 00000-0 59009-4 0 9998 2 20442 98.8851 185.4708 0010888 214.6360 145.4115 14.34121964901762 AO-27 1 22825U 93061C 26163.17512623 .00000088 00000-0 50602-4 0 9996 2 22825 98.6880 230.5904 0009470 112.6662 247.5523 14.30940991706288 FO-29 1 24278U 96046B 26163.80109985 .00000019 00000-0 52055-4 0 9997 2 24278 98.5243 13.2741 0350852 107.7840 256.1904 13.53274026472579 GO-32 1 25397U 98043D 26163.84980902 .00000056 00000-0 44194-4 0 9995 2 25397 99.0066 156.4990 0000820 172.7778 187.3412 14.24427638450715 ISS 1 25544U 98067A 26163.80312907 .00008495 00000-0 16106-3 0 9991 2 25544 51.6335 321.7912 0004900 178.5917 181.5086 15.49196054571074 NO-44 1 26931U 01043C 26162.64152601 .00000072 00000-0 57659-4 0 9996 2 26931 67.0509 258.6152 0006100 264.4327 95.6080 14.31954152289657 SO-50 1 27607U 02058C 26163.30015445 .00000989 00000-0 13385-3 0 9996 2 27607 64.5507 144.1057 0075372 263.3766 95.8757 14.83036938263737 CO-55 1 27844U 03031E 26162.97931317 .00000243 00000-0 12418-3 0 9997 2 27844 98.6735 171.6035 0009162 193.3973 166.6964 14.24332546190935 RS-22 1 27939U 03042A 26163.87473065 .00000779 00000-0 12834-3 0 9991 2 27939 98.3470 348.1124 0010004 285.2083 182.2080 14.73459704214911 CO-65 1 32785U 08021C 26163.87354113 .00005212 00000-0 32974-3 0 9994 2 32785 97.8271 145.2022 0010268 52.3473 307.8685 15.09415432984549 CO-66 1 32791U 08021J 26163.23902191 .00019444 00000-0 61967-3 0 9992 2 32791 97.7515 160.9008 0001816 20.0677 340.0635 15.32585967986533 RS-30 1 32953U 08025A 26163.83312645 -.00000002 00000-0 -84848-4 0 9997 2 32953 82.5048 358.1498 0019021 323.7025 36.2763 12.43178889819156 SRMSAT 1 37841U 11058D 26162.51581192 .00000355 00000-0 48954-4 0 9994 2 37841 19.9715 93.7945 0011909 141.4141 27.1536 14.11574372757019 ZACUBE-1 1 39417U 13066B 26163.87468678 .00003629 00000-0 28323-3 0 9993 2 39417 97.8083 126.1882 0040346 262.7759 96.8878 15.01164573680085 Delfi-N3xt 1 39428U 13066N 26163.82755483 .00004855 00000-0 42586-3 0 9992 2 39428 97.8343 84.1432 0073383 220.4660 139.1090 14.95040596673976 GOMX-1 1 39430U 13066Q 26163.82796623 .00002189 00000-0 33202-3 0 9999 2 39430 97.6491 4.5668 0130186 91.3655 270.2469 14.69445497669277 LO-74 1 39440U 13066AA 26163.84301876 .00004525 00000-0 41877-3 0 9997 2 39440 97.8900 112.8027 0058755 43.0424 317.5369 14.93728016676344 AO-73 1 39444U 13066AE 26163.81395881 .00007072 00000-0 43981-3 0 9995 2 39444 97.8264 135.1682 0035292 216.3292 143.5540 15.09437538679003 DTUSAT-2 1 40030U 14033W 26162.95402888 .00006216 00000-0 33719-3 0 9990 2 40030 98.0857 160.3488 0006303 246.9203 113.1364 15.14950176651891 LILACSAT-2 1 40908U 15049K 26163.82169484 .00018630 00000-0 31865-3 0 9994 2 40908 97.4655 200.4974 0005323 266.0927 93.9716 15.51306623595073 Horyu-4 1 41340U 16012D 26163.17820750 .00381515 49653-4 10938-2 0 9997 2 41340 30.9835 115.7146 0003837 236.1046 123.9250 15.91940402570010 Lapan A3 1 41603U 16040E 26163.88333584 .00003576 00000-0 11407-3 0 9992 2 41603 97.1483 160.1703 0011370 40.0799 320.1281 15.33078821554152 CAS-2T 1 41847U 16066G 26163.80788914 .00001644 00000-0 23742-3 0 9992 2 41847 98.3820 239.5941 0342652 142.7227 219.8287 14.44680695504166 TechnoSat 1 42829U 17042E 26162.99659051 .00003373 00000-0 24149-3 0 9999 2 42829 97.4264 320.8526 0018789 110.6510 249.6734 15.04923285485924 AO-91 1 43017U 17073E 26163.18070044 .00010038 00000-0 43795-3 0 9998 2 43017 97.4717 30.4982 0150347 346.5871 13.1381 15.12639688464631 S-Net D 1 43186U 18014G 26163.18375949 .00004969 00000-0 25738-3 0 9996 2 43186 97.5372 68.0060 0009422 45.5733 314.6269 15.16627635458001 S-Net B 1 43187U 18014H 26163.19511552 .00005165 00000-0 26755-3 0 9999 2 43187 97.5379 68.0036 0009929 40.8556 319.3419 15.16598115458004 S-Net A 1 43188U 18014J 26163.24864102 .00004914 00000-0 25445-3 0 9994 2 43188 97.5389 68.2645 0009801 41.6460 318.5518 15.16635862458019 S-Net C 1 43189U 18014K 26163.26494565 .00005273 00000-0 27306-3 0 9996 2 43189 97.5405 68.3547 0010980 33.6648 326.5280 15.16590724456560 Ten-Koh 1 43677U 18084G 26163.79614203 .00002388 00000-0 18256-3 0 9994 2 43677 98.0778 355.9749 0011132 127.3102 232.9138 15.02927364415506 PO-101 1 43678U 18084H 26163.83514209 .00002703 00000-0 21983-3 0 9997 2 43678 98.1180 359.8551 0012232 184.2462 175.8658 15.00433168415562 QO-100 1 43700U 18090A 26163.77683866 .00000158 00000-0 00000 0 0 9994 2 43700 0.0020 358.2401 0001494 123.3765 84.9580 1.00268357 27630 MinXSS-2 1 43758U 18099A 26163.75731947 .00039112 00000-0 78359-3 0 9996 2 43758 97.4549 239.9124 0006364 273.5125 86.5396 15.46613246413442 AO-95 1 43770U 18099N 26163.16185761 .00012073 00000-0 46305-3 0 9995 2 43770 97.4395 223.4266 0008513 16.6170 343.5346 15.26608215412453 SNUSat 2 1 43782U 18099AA 26163.13878288 .00006896 00000-0 30686-3 0 9999 2 43782 97.4069 216.5999 0008857 319.4163 40.6412 15.21762760412266 SnugLite 1 43784U 18099AC 26163.09829076 .00011330 00000-0 42919-3 0 9998 2 43784 97.3878 217.4283 0001438 331.6355 28.4806 15.27067610412548 ITASat 1 1 43786U 18099AE 26163.08115618 .00006413 00000-0 30911-3 0 9994 2 43786 97.4034 214.6947 0012663 18.3409 341.8279 15.18993689412137 EAGLET 1 1 43790U 18099AJ 26163.09238382 .00004004 00000-0 23079-3 0 9995 2 43790 97.4234 212.8956 0011184 11.8995 348.2498 15.12900595411567 ESEO 1 43792U 18099AL 26163.85649022 .00002159 00000-0 15933-3 0 9997 2 43792 97.3968 201.4298 0011779 354.4284 5.6809 15.04231279411154 JO-97 1 43803U 18099AX 26163.13681758 .00015570 00000-0 48284-3 0 9999 2 43803 97.4133 225.9535 0004127 287.1205 72.9585 15.33493153412850 Suomi 100 1 43804U 18099AY 26163.09947341 .00010802 00000-0 39404-3 0 9995 2 43804 97.4198 223.5118 0008385 300.8442 59.1973 15.28298962412649 ISAT 1 43879U 18111D 26163.81411289 .00088374 00000-0 91074-3 0 9999 2 43879 97.5888 98.7007 0001022 70.0748 290.0621 15.64543764410482 UWE-4 1 43880U 18111E 26163.03704896 .00037924 00000-0 78108-3 0 9992 2 43880 97.5852 91.1918 0006446 4.5905 355.5402 15.45812047409984 Sparrow 1 43881U 18111F 26163.80756426 .00158434 00000-0 11354-2 0 9993 2 43881 97.6115 104.2344 0004582 105.8676 254.3093 15.73206167410688 Prox-1 1 44339U 19036A 26162.63473252 .00012207 00000-0 11914-2 0 9991 2 44339 23.9924 151.3410 0005369 331.4108 28.6097 14.90479846372648 Taurus 1 1 44530U 19059C 26163.89259086 .00006990 00000-0 11198-2 0 9991 2 44530 98.6406 328.4547 0007614 331.7865 28.2927 14.72056763358013 TO-108 1 44881U 19093C 26163.80404896 .00000345 00000-0 44917-4 0 9995 2 44881 97.7533 236.1427 0014972 99.7681 260.5226 14.86510113350763 RS-44 1 44909U 19096E 26163.86157388 .00000032 00000-0 79705-4 0 9992 2 44909 82.5218 342.5799 0218000 154.2510 206.9640 12.79748794301797 SALSAT 1 46495U 20068K 26163.76299022 .00008507 00000-0 29790-3 0 9999 2 46495 97.8846 166.5583 0008406 326.8032 33.2678 15.29738569314684 CSS (TIANHE-1) 1 48274U 21035A 26163.81770925 .00021976 00000-0 26094-3 0 9992 2 48274 41.4694 348.5894 0007968 41.6006 318.5438 15.60618766292486 CUTE 1 49263U 21088D 26163.78917242 .00153027 10815-4 46806-3 0 9995 2 49263 97.4156 262.6626 0007665 237.5184 122.5349 15.91900919261854 TeikyoSat 4 1 49396U 21102B 26163.81187340 .00001815 00000-0 11696-3 0 9998 2 49396 97.3671 193.4655 0010746 313.8079 46.2261 15.09494715252069 Z-Sat 1 49399U 21102E 26163.84809640 .00004045 00000-0 20037-3 0 9995 2 49399 97.3330 199.3026 0014892 261.8922 98.0623 15.18230933252782 KOSEN 1 1 49402U 21102H 26163.09516589 .00006510 00000-0 24961-3 0 9993 2 49402 97.3194 205.3513 0012672 219.4221 140.6097 15.26764823253249 HO-113 1 50466U 21131B 26163.88945514 .00000338 00000-0 11807-3 0 9995 2 50466 98.4976 256.3023 0005304 106.1028 254.0745 14.41353089234494 SNUGLITE 2 1 52899U 22065F 26163.86287813 .00000886 00000-0 17689-3 0 9995 2 52899 98.2195 308.7012 0008259 45.3665 314.8210 14.64340425210367 UmKA 1 (RS40S) 1 57172U 23091G 26163.81710698 .00006063 00000-0 27774-3 0 9990 2 57172 97.5058 222.5309 0014072 131.2604 228.9846 15.20768856163346 CubeBel-2 (EU11S) 1 57175U 23091K 26163.79936870 .00013359 00000-0 47521-3 0 9990 2 57175 97.5061 226.9769 0011196 127.9821 232.2432 15.29046902163639 RS-38S 1 57189U 23091Z 26163.84786405 .00017390 00000-0 49908-3 0 9998 2 57189 97.5101 233.2457 0008515 90.5208 269.7011 15.35892638164023 SONATE-2 1 59112U 24043Q 26162.93769449 .00035538 00000-0 46836-3 0 9993 2 59112 97.5519 313.0138 0006785 213.3126 146.7703 15.58325832127076 GRBBeta 1 60237U 24128C 26163.77333337 .00003691 00000-0 25772-3 0 9994 2 60237 61.9896 231.7519 0041192 133.7037 226.7481 15.06613019105602 Curium One 1 60242U 24128H 26163.27783930 .00006940 00000-0 40191-3 0 9995 2 60242 61.9782 223.1618 0040532 129.5442 230.9246 15.12452442105713 ROBUSTA-3A 1 60243U 24128J 26163.30603974 .00007007 00000-0 41454-3 0 9997 2 60243 61.9860 225.5052 0041864 127.2589 233.2336 15.11623087105681 CatSat 1 60246U 24125J 26163.83761934 .00060479 00000-0 79048-3 0 9998 2 60246 97.2090 16.2842 0022239 194.7438 165.3173 15.58156553106719 HYPERVIEW-1G (RS66S) 1 61772U 24199AP 26163.80658323 .00129978 00000-0 87653-3 0 9999 2 61772 97.2886 43.3086 0002784 241.6635 118.4350 15.74721372133982 AO-123 1 61781U 24199AY 26163.79918727 .00007874 00000-0 22915-3 0 9994 2 61781 97.3012 32.5101 0012690 331.4870 28.5678 15.35615276133254 JINJUSat 1B 1 63210U 25052A 26163.18653837 .00018357 00000-0 57106-3 0 9991 2 63210 97.4019 59.9354 0005437 102.0175 258.1677 15.33350797 69334 NUSHSAT 1 1 63211U 25052B 26163.23821073 .00022200 00000-0 63874-3 0 9998 2 63211 97.3995 60.5359 0005195 103.5392 256.6431 15.35782531 69381 TEVEL2-4 1 63213U 25052D 26163.22634011 .00019646 00000-0 59033-3 0 9995 2 63213 97.3917 59.6110 0004731 112.7549 247.4195 15.34441293 69350 TEVEL2-5 1 63214U 25052E 26163.18106670 .00020078 00000-0 60654-3 0 9998 2 63214 97.3921 59.5143 0004630 114.2395 245.9332 15.34269187 69340 TEVEL2-6 1 63215U 25052F 26163.19328240 .00020179 00000-0 61028-3 0 9997 2 63215 97.3921 59.5115 0004505 113.2672 246.9046 15.34232330 69341 TEVEL2-1 1 63217U 25052H 26162.95960718 .00016082 00000-0 49545-3 0 9992 2 63217 97.3891 58.9077 0004509 123.4340 236.7334 15.33693147 69295 TEVEL2-3 1 63218U 25052J 26163.21540340 .00019135 00000-0 58756-3 0 9994 2 63218 97.3892 59.1848 0004499 123.1530 237.0145 15.33760310 69338 TEVEL2-2 1 63219U 25052K 26162.95994952 .00016262 00000-0 50083-3 0 9990 2 63219 97.3890 58.9106 0004450 123.8478 236.3189 15.33701780 69297 TEVEL2-9 1 63237U 25052AD 26163.19195162 .00017823 00000-0 58280-3 0 9994 2 63237 97.3947 58.5267 0007288 144.2630 215.9100 15.31748226 69260 TEVEL2-7 1 63238U 25052AE 26162.64384617 .00015266 00000-0 50453-3 0 9992 2 63238 97.3956 57.8996 0007384 146.6025 213.5683 15.31438086 69173 TEVEL2-8 1 63239U 25052AF 26163.17476619 .00016802 00000-0 55488-3 0 9996 2 63239 97.3951 58.4063 0007475 146.0802 214.0919 15.31439720 69252 SPIRONE 1 66657U 25274H 26163.76619764 .00002414 00000-0 23425-3 0 9994 2 66657 97.7484 93.1208 0013108 35.9710 324.2389 14.93530918 29568 K-HERO 1 66660U 25274L 26163.77202600 .00001886 00000-0 18215-3 0 9999 2 66660 97.7493 93.2844 0015074 39.0130 321.2175 14.93949021 29574 SNUGLITE-III DURI 1 66661U 25274M 26163.75992424 .00002042 00000-0 19658-3 0 9995 2 66661 97.7489 93.2926 0015641 39.4955 320.7402 14.93989044 29576 SAKHACUBE-CHOLBON 1 67290U 25313AU 26163.17296909 .00009791 00000-0 39694-3 0 9999 2 67290 97.3937 238.2703 0009393 23.1321 337.0338 15.24801692 25210 RS95S (QMR-KWT-2) 1 67291U 25313AV 26163.16578942 .00015119 00000-0 58665-3 0 9999 2 67291 97.3937 238.4284 0008727 21.5421 338.6183 15.26166188 25222 Ten-Koh2 1 68261U 25241B 26163.75309573 .00006733 00000-0 28882-3 0 9994 2 68261 51.6688 340.7302 0006220 129.1922 230.9609 15.23854656 14238 JACK-002 1 68417U 26067B 26163.81476851 .00007021 00000-0 33538-3 0 9990 2 68417 97.4562 122.4593 0000705 13.0731 347.0521 15.19343900 11283 DISCO 2 1 68431U 26067R 26163.83500144 .00009034 00000-0 43460-3 0 9992 2 68431 97.4593 122.4683 0003221 50.2992 309.8526 15.19009759 11283 HADES-SA (SpinnyONE) 1 68446U 26067AG 26163.80818705 .00019788 00000-0 94817-3 0 9999 2 68446 97.4393 122.1700 0009698 93.0154 267.2191 15.18919379 11263 PARUS-6U1 1 68456U 26067AS 26163.83640427 .00006159 00000-0 31062-3 0 9998 2 68456 97.4546 122.2667 0007554 82.8981 277.3112 15.17472515 11271 SAL-E 1 68458U 26067AU 26163.83250422 .00008212 00000-0 41026-3 0 9995 2 68458 97.4470 122.2017 0007943 90.1085 270.1059 15.17695892 11273 FSI-SAT 2 1 68792U 26088A 26163.17242702 .00004994 00000-0 33857-3 0 9994 2 68792 97.5048 312.5581 0015561 122.6202 237.6530 15.06792592 7532 OrigamiSat 2 1 68795U 26088D 26162.39189273 .00002808 00000-0 18308-3 0 9999 2 68795 97.4996 311.9168 0016256 99.2249 261.0819 15.08597160 7427 ARICA 2 1 68796U 26088E 26162.65547729 .00003522 00000-0 22986-3 0 9994 2 68796 97.5045 312.1677 0017187 97.6089 262.7092 15.08382175 7463 WASEDA-SAT-ZERO-II 1 68797U 26088F 26162.98359818 .00005115 00000-0 33016-3 0 9997 2 68797 97.5042 312.4956 0016882 96.5831 263.7320 15.08581239 7511 MANGARO-II-Piscus 1 68798U 26088G 26162.90825429 .00003831 00000-0 24688-3 0 9994 2 68798 97.5054 312.4489 0020445 99.3351 261.0191 15.08743852 7501 IO-86 1 40931U 25360.30710720 .00000000 00000-0 12800-3 0 00 2 40931 6.0006 332.5373 0012733 338.8432 8.1437 14.79075515 01 LILIUM-4 1 71922C 26067AC 26089.50133053 -.00014632 00000 0 -74472-3 0 04 2 71922 97.4497 49.1617 0004341 5.9603 355.7042 15.16896692 16